sat.trackr.live / text

‹ back to catalog

STARLINK-34462

NORAD 64493 · 2025-133X

PAYLOAD ACTIVE UNKNOWN

§ Identity

Operator
Country
US
Launch date
2025-06-23
Launch site
AFETR
Launch vehicle
Mass (kg)
RCS (m²)

Purposes: comms

External: N2YO · Heavens-Above · Gunter

§ Orbital elements

Epoch: 2026-09-20T19:02:39.221664Z

Period
93.85 min
Inclination
53.1593°
Eccentricity
0.0001307
Mean motion
15.34399078 rev/d
Perigee alt
461.8 km
Apogee alt
463.6 km
Semi-major
6,840.8 km
B*
7.5905e-4
RAAN
284.5986°
Arg perigee
90.6233°
Mean anomaly
269.4919°
Rev number
7,114

§ Raw data

STARLINK-344621 64493U 25133X   26263.79350951  .00025356  00000+0  75905-3 0  99972 64493  53.1593 284.5986 0001307  90.6233 269.4919 15.34399078 71142

JSON: /api/v1/satellites/64493 · /tle

For live sub-satellite position, see the globe view (requires WebGL).

§ Visibility from observer

Set your observer location to see the next 7 days of passes ≥ 10°. The values pass through the URL so the page stays shareable.

No JS? Fill the form by hand. The geolocation button needs JavaScript.